Flag for Antigua and Barbuda Weather past 2 weeks in Saint John's, Antigua and Barbuda

82 °F

Passing clouds.

Feels Like: 88 °F
Forecast: 81 / 87 °F
Wind: 5 mph from Southeast

Location: Vc Bird International Antigua Airport

Current Time: Oct 5, 2015 at 12:45:49 AM

Latest Report: Oct 5, 2015 at 12:00 AM

Visibility: N/A

Pressure: 29.98 "Hg

Humidity: 74%

Dew point: 73 °F

Location of Saint John'sLocation

Historic Weather in Saint John's — Graph


Saint John's temperature yesterday

Maximum temperature yesterday: 91 °F (at 12:00 PM)
Minimum temperature yesterday: 81 °F (at 4:00 AM)
Average temperature yesterday: 85 °F

Past Weeks' High & Low Weather Summary

High91 °F (Sep 30, 12:00 PM)94% (Sep 27, 5:00 AM)29.98 "Hg (Sep 27, 5:00 AM)
Low77 °F (Sep 21, 4:00 AM)49% (Sep 30, 12:00 PM)29.77 "Hg (Oct 1, 2:00 AM)
Average83 °F76%29.88 "Hg
* Reported Sep 19 11:00 PM — Oct 4 11:00 PM, Saint John's, Weather by CustomWeather, © 2015

Note: Actual official high and low records may vary slightly from our data, if they occured in-between our weather recording intervals... More about our weather records


Saint John's weather history for previous 24 hours

Time TempWeatherWind HumidityBarometerVisibility
11:00 PM
Sun, Oct 4
82 °FPassing clouds.6 mph79%29.98 "HgN/A
10:00 PM84 °FPassing clouds.6 mph74%29.98 "HgN/A
9:00 PM82 °FPassing clouds.7 mph79%29.98 "HgN/A
8:00 PM84 °FPassing clouds.6 mph74%29.95 "HgN/A
7:00 PM84 °FPassing clouds.7 mph79%29.92 "HgN/A
6:00 PM84 °FPassing clouds.9 mph79%29.89 "HgN/A
5:00 PM86 °FPassing clouds.8 mph75%29.89 "HgN/A
4:00 PM88 °FPassing clouds.9 mph70%29.86 "HgN/A
3:00 PM88 °FPassing clouds.8 mph70%29.86 "HgN/A
2:00 PM88 °FPassing clouds.9 mph70%29.89 "HgN/A
1:00 PM90 °FScattered clouds.8 mph63%29.89 "HgN/A
12:00 PM91 °FScattered clouds.8 mph56%29.92 "HgN/A
11:00 AM90 °FScattered clouds.9 mph59%29.92 "HgN/A
10:00 AM90 °FScattered clouds.8 mph63%29.95 "HgN/A
9:00 AM86 °FPartly sunny.9 mph75%29.92 "HgN/A
8:00 AM86 °FScattered clouds.8 mph70%29.92 "HgN/A
7:00 AM82 °FPassing clouds.3 mph84%29.89 "HgN/A
6:00 AM82 °FPassing clouds.5 mph79%29.89 "HgN/A
5:00 AM81 °FPassing clouds.5 mph84%29.92 "HgN/A
4:00 AM81 °FPassing clouds.5 mph84%29.89 "HgN/A
3:00 AM82 °FPassing clouds.5 mph84%29.89 "HgN/A
2:00 AM82 °FPassing clouds.6 mph84%29.92 "HgN/A
1:00 AM82 °FPassing clouds.6 mph84%29.92 "HgN/A
12:00 AM82 °FPassing clouds.5 mph84%29.95 "HgN/A
Weather by CustomWeather, © 2015

See weather overviewHow to use our weather pages